Miscellaneous Local Product
Issued by NWS Hastings, NE

Home | Current Version | Previous Version | Text Only | Print | Product List | Glossary Off
Versions: 1 2 3 4 5 6 7 8 9 10 11 12 13 14 15 16 17 18 19 20 21 22 23 24 25 26 27 28 29 30 31 32 33 34 35 36 37 38 39 40 41 42 43 44 45 46 47 48 49 50

000
AXUS43 KGID 270302
MISGRI

GID CWA HOURLY WEATHER ROUNDUP
NATIONAL WEATHER SERVICE HASTINGS NE
1000 PM CDT TUE APR 26 2016

NOTE: "FAIR" INDICATES FEW OR NO CLOUDS BELOW 12,000 FEET WITH NO
SIGNIFICANT WEATHER AND/OR OBSTRUCTIONS TO VISIBILITY.

...SOUTH CENTRAL NEBRASKA...

CITY           SKY/WX    TMP DP  RH WIND       PRES   REMARKS
GRAND ISLAND   CLOUDY    61  56  83 E22G28    29.64R
HASTINGS       CLOUDY    59  50  72 N9        29.63R
KEARNEY        CLOUDY    52  46  82 N17       29.69F
ORD            HVY RAIN  51  49  92 N20       29.71R FOG
YORK           RAIN      61  57  88 E41G48    29.58R
AURORA         CLOUDY    59  58  96 E25       29.60R
LEXINGTON      CLOUDY    50  43  77 N23G33    29.66F
HOLDREGE       RAIN      49  47  93 NE23      29.62F
HEBRON         CLOUDY    62  59  90 E20G35    29.56F

...NEBRASKA PANHANDLE...

CITY           SKY/WX    TMP DP  RH WIND       PRES   REMARKS
CHADRON        CLOUDY    37  35  92 N7        29.85F WCI  32
ALLIANCE       CLOUDY    36  34  92 N15       29.82R WCI  27
SCOTTSBLUFF    CLOUDY    38  34  85 NW13      29.79F WCI  30
SIDNEY         CLOUDY    38  35  89 N14       29.79R WCI  30

...WESTERN AND NORTH CENTRAL NEBRASKA...

CITY           SKY/WX    TMP DP  RH WIND       PRES   REMARKS
VALENTINE      CLOUDY    44  41  89 N7        29.83S
AINSWORTH      DRIZZLE   44  43  98 N12       29.81R
ONEILL         LGT RAIN  52  49  89 N7        29.77R
BROKEN BOW     TSTM      47  43  86 N17       29.73R
IMPERIAL       CLOUDY    46  42  86 N21       29.72S
NORTH PLATTE   CLOUDY    44  41  89 N21G30    29.71S
MCCOOK         CLOUDY    50  43  77 N21G32    29.66R

...EASTERN NEBRASKA...

CITY           SKY/WX    TMP DP  RH WIND       PRES   REMARKS
NORFOLK        CLOUDY    57  51  80 E8        29.70R
SO SIOUX CITY  CLOUDY    58  51  78 E20G30    29.71F
TEKAMAH        LGT RAIN  61  59  93 NE10      29.69F
COLUMBUS       CLOUDY    59  52  77 NE10      29.70R
ALBION         RAIN      58  54  86 E18G25    29.67R
OMAHA EPPLEY   LGT RAIN  64  58  80 E16       29.64F
OFFUTT AFB     TSTM      63  57  82 E22G29    29.63F
MILLARD        LGT RAIN  64  60  85 CALM      29.62S
LINCOLN        CLOUDY    62  59  90 N10       29.66R
NEBRASKA CITY  RAIN      60  56  88 E21       29.64F
BEATRICE       CLOUDY    62  55  76 E13G20    29.60R
FALLS CITY     NOT AVBL

...NORTHERN KANSAS...

CITY           SKY/WX    TMP DP  RH WIND       PRES   REMARKS
GOODLAND       CLOUDY    48  44  86 N26G33    29.67R
HILL CITY      CLOUDY    57  48  72 N22G32    29.59R
NORTON         CLEAR     54  43  66 N18G26    29.60R
PHILLIPSBURG   CLOUDY    63  55  77 N3        29.59R
SMITH CENTER   MOCLDY    57  54  88 N8        29.57R
BELOIT         MOCLDY    64  55  72 E13       29.52R
HAYS           CLOUDY    63  39  42 NE6       29.51F
RUSSELL        CLOUDY    69  34  27 W15       29.50R
CONCORDIA      CLOUDY    62  58  86 E15G23    29.51F
SALINA         TSTM      64  61  90 E10       29.53F
TOPEKA         RAIN      61  59  93 CALM      29.70R FOG



USA.gov is the U.S. government's official web portal to all federal, state and local government web resources and services.